Regional Weather Roundup
Issued by NWS

Home | Current Version | Previous Version | Text Only | Print | Product List | Glossary Off
Versions: 1 2 3 4 5 6 7 8 9 10 11 12 13 14 15 16 17 18 19 20 21 22 23 24 25 26 27 28 29 30 31 32 33 34 35 36 37 38 39 40 41 42 43 44 45 46 47 48 49 50

000
ASUS43 KOAX 010402
RWRNE

WEATHER ROUNDUP FOR NEBRASKA
NATIONAL WEATHER SERVICE OMAHA NE
1100 PM CDT MON AUG 31 2015

NOTES: SATELLITE DATA IS BEING USED TO AUGMENT CLOUD COVER ABOVE
       12000 FEET.
       "FAIR" INDICATES FEW OR NO CLOUDS BELOW 12,000 FEET WITH NO
       SIGNIFICANT WEATHER AND/OR OBSTRUCTIONS TO VISIBILITY.

  * THESE STATIONS DO NOT REPORT WEATHER SUCH AS RAIN...SNOW OR FOG.

NEZ001>004-019>022-054>056-010500-
NEBRASKA PANHANDLE

CITY           SKY/WX    TMP DP  RH WIND       PRES   REMARKS
SCOTTSBLUFF    CLOUDY    67  55  65 SW9       30.03F
ALLIANCE       CLOUDY    73  48  41 S3        30.01F
CHADRON        CLOUDY    75  52  44 S9        29.95F
KIMBALL        LGT RAIN  63  58  82 NW3       30.10F
SIDNEY         CLOUDY    68  54  60 NW8       30.07F
$$

NEZ057>060-069>072-079>082-010500-
SOUTHWEST NEBRASKA

CITY           SKY/WX    TMP DP  RH WIND       PRES   REMARKS
NORTH PLATTE   MOCLDY    74  64  71 NE9       29.93F
IMPERIAL       MOCLDY    78  60  53 N18       29.95R
LEXINGTON      PTCLDY    71  66  83 E6        29.92S
MCCOOK         CLEAR     78  55  44 E3        29.89S
$$

NEZ005>010-023>029-035>040-094-010500-
NORTH CENTRAL NEBRASKA

CITY           SKY/WX    TMP DP  RH WIND       PRES   REMARKS
VALENTINE      MOCLDY    68  60  75 CALM      29.95S
AINSWORTH      CLOUDY    68  64  87 CALM      29.96F
BROKEN BOW     MOCLDY    71  67  87 CALM      29.94S
ORD            PTCLDY    70  67  90 CALM      29.92S
$$

NEZ041-046>049-061>064-073>077-083>087-010500-
SOUTH CENTRAL NEBRASKA

CITY           SKY/WX    TMP DP  RH WIND       PRES   REMARKS
GRAND ISLAND   CLEAR     73  67  81 E8        29.92S
AURORA         CLEAR     71  69  91 SE7       29.92F
HASTINGS       CLEAR     73  65  75 SE5       29.92S
HEBRON         CLEAR     74  64  68 SE5       29.91S
HOLDREGE       CLEAR     72  60  66 SE8       29.92S
KEARNEY *      CLEAR     72  63  73 SE8       29.92S
YORK           CLEAR     73  68  83 SE7       29.93S
$$

NEZ011>018-030>034-042>045-010500-
NORTHEAST NEBRASKA

CITY           SKY/WX    TMP DP  RH WIND       PRES   REMARKS
NORFOLK        CLEAR     71  69  93 SE6       29.92R
ALBION         CLEAR     71  67  88 SE5       29.93S
BLAIR          CLEAR     74  67  78 SE8       29.93S
COLUMBUS *     CLEAR     70  64  83 E3        29.93S
FREMONT        CLEAR     74  68  80 SE7       29.92S
TEKAMAH        CLEAR     68  67  96 S3        29.91F
WAYNE          CLEAR     71  68  90 S6        29.92S
$$

NEZ050>053-065>068-078-088>093-010500-
SOUTHEAST NEBRASKA

CITY           SKY/WX    TMP DP  RH WIND       PRES   REMARKS
LINCOLN        CLEAR     77  68  73 S8        29.93S
OMAHA EPPLEY   CLEAR     75  69  81 S9        29.92S
BEATRICE       CLEAR     74  67  79 SE6       29.92F
FALLS CITY     CLEAR     75  70  84 SE7       29.93S
NEBRASKA CITY  CLEAR     73  67  81 S8        29.94S
PLATTSMOUTH    CLEAR     72  68  88 SE7       29.94S
$$

NEZ044-045-051>053-067-010500-
OMAHA AREA

CITY           SKY/WX    TMP DP  RH WIND       PRES   REMARKS
OMAHA EPPLEY   CLEAR     75  69  81 S9        29.92S
BLAIR          CLEAR     74  67  78 SE8       29.93S
FREMONT        CLEAR     74  68  80 SE7       29.92S
OFFUTT AFB     CLEAR     73  69  87 E6        29.92S
PLATTSMOUTH    CLEAR     72  68  88 SE7       29.94S
WAHOO          FAIR      70  68  93 SE5       29.92F
$$



USA.gov is the U.S. government's official web portal to all federal, state and local government web resources and services.